Regional Weather Roundup
Issued by NWS

Home | Current Version | Previous Version | Text Only | Print | Product List | Glossary On
Versions: 1 2 3 4 5 6 7 8 9 10 11 12 13 14 15 16 17 18 19 20 21 22 23 24 25 26 27 28 29 30 31 32 33 34 35 36 37 38 39 40 41 42 43 44 45 46 47 48 49 50
000
ASUS44 KLUB 242301
RWRTX
WEST TEXAS WEATHER ROUNDUP
NATIONAL WEATHER SERVICE LUBBOCK TX
600 PM CDT THU JUL 24 2014

NOTE: "FAIR" INDICATES FEW OR NO CLOUDS BELOW 12,000 FEET WITH NO
SIGNIFICANT WEATHER AND/OR OBSTRUCTIONS TO VISIBILITY.

TXZ004-006>008-010-012-014-016-OKZ002-250000-
TEXAS PANHANDLE/OKLAHOMA PANHANDLE

CITY           SKY/WX    TMP DP  RH WIND       PRES   REMARKS
AMARILLO       SUNNY     94  52  24 S10       30.08F
BORGER         SUNNY     99  50  19 SW13G20   30.02F HX  96
CANADIAN       SUNNY     99  61  28 S14G22    29.97F HX 100
DALHART        SUNNY     99  42  14 SW17      30.06F
DUMAS          SUNNY     95  52  23 S12G22    30.06F
GUYMON         SUNNY    100  49  17 S16G28    29.97F HX  97
HEREFORD       SUNNY     94  55  26 SE14G20   30.10F
PAMPA          SUNNY     95  55  26 S13G20    30.06F
PERRYTON       SUNNY    100  50  18 S17G28    29.99F HX  97
$$

TXZ026-029-035-045-048-250000-
SOUTHERN PANHANDLE/SOUTH PLAINS/ROLLING PLAINS

CITY           SKY/WX    TMP DP  RH WIND       PRES   REMARKS
CHILDRESS      MOSUNNY   96  63  33 SE9       30.00F HX  97
SEMINOLE       SUNNY     97  44  16 E7        30.08F
LUBBOCK        MOSUNNY   96  54  24 E9        30.08F
PLAINVIEW      SUNNY     91  59  34 SE8       30.09F
SNYDER         SUNNY     98  57  25 SE7G18    30.03F HX  97
$$

TXZ052-054-060>062-072-078-127-140-154-169-250000-
PERMIAN BASIN/CONCHO VALLEY/BIG COUNTRY/EDWARDS PLATEAU

CITY           SKY/WX    TMP DP  RH WIND       PRES   REMARKS
ABILENE        SUNNY     95  64  35 E8        30.00F HX  97
BIG SPRING     MOSUNNY  100  48  17 NE14      30.04F HX  96
BRADY          MOSUNNY   93  64  38 E6        30.00F HX  95
BROWNWOOD      SUNNY     93  66  40 E12G18    29.99S HX  96
JUNCTION       MOSUNNY   96  60  30 NE10G21   29.98F HX  96
MIDLAND        PTSUNNY   98  54  22 E12       30.03F HX  96
ODESSA         SUNNY     98  49  18 E14G20    30.05F HX  95
SAN ANGELO     SUNNY     95  62  33 E12       30.00F HX  96
SONORA         MOSUNNY   95  59  30 E13       30.03F
SWEETWATER     MOSUNNY   98  55  24 NE10G17   30.05F HX  96
WINK           SUNNY    100  45  15 VRB6      30.00F HX  96
$$

TXZ055-058-074-075-080-082-250000-
FAR WEST/SOUTHWEST MOUNTAINS/TRANS PECOS

CITY           SKY/WX    TMP DP  RH WIND       PRES   REMARKS
ALPINE         MOSUNNY   92  44  18 E12G20    30.19F
DRYDEN           N/A    103  55  20 E9        29.97F HX 101
EL PASO        MOSUNNY   97  49  19 S8        30.07F
FORT STOCKTON  MOSUNNY   95  50  21 VRB5      30.04F
GUADALUPE PASS MOSUNNY   87  44  22 E14         N/A
MARFA          MOSUNNY   86  52  30 NE3       30.20F
PRESIDIO       FAIR      99  48  18 E6G16     29.98F HX  95
$$

TXZ014-016-019-021>030-083-250000
TEXAS TECH WEST TEXAS MESONET/TEXAS PANHANDLE/NORTHERN SOUTH PLAINS

CITY           SKY/WX    TMP DP  RH WIND       PRES   REMARKS
ABERNATHY 5ENE   N/A     94  55  26 SE7       30.10F
AMARILLO 9NNE    N/A     93  55  27 S9        30.05F
AMARILLO 7SSE    N/A     95  53  24 S8        30.09F
AMHERST 1NE      N/A     94  48  20 E7        30.10F
BOOTLEG 11WNW    N/A     92  55  28 S14       30.15F
CANADIAN 6E      N/A     97  65  34 S17       29.98F HX  99
CAPROCK CYN SP   N/A     96  60  30 SE8       30.04F HX  95
CHILDRESS 2NNE   N/A     98  63  32 SE10      29.99F HX  99
CLARENDON 2WSW   N/A     94  60  31 S8        30.05S
CLAUDE 12SW      N/A     93  60  32 SE10      30.08F
DIMMITT 2NE      N/A     92  50  23 SE12      30.11F
FLOYDADA 2NNE    N/A     91  59  34 S5        30.09F
FRIONA 2NE       N/A     95  48  20 S12       30.12F
GOODLETT 3W      N/A     98  63  31 SE8       29.97F HX  99
HART 3N          N/A     92  55  27 SE7       30.11F
HEREFORD 2NW     N/A     92  53  26 SE12      30.10F
MCLEAN 1E        N/A     93  62  35 S14       30.04F
MEMPHIS 1NE      N/A     98  60  28 SE6       30.00F HX  98
MULESHOE 2SSW    N/A     94  47  19 E8        30.10F
OLTON 6S         N/A     92  56  29 SE10      30.10F
PALO DURO SP     N/A     94  55  26 S8        30.09F
PAMPA 2E         N/A     93  59  31 S14       30.06S
PLAINVIEW 1S     N/A     93  57  29 E8        30.09F
SILVERTON 7ESE   N/A     93  61  34 S6        30.08F
TULIA 2ENE       N/A     92  60  34 SE10      30.10F
TURKEY 2WSW      N/A     97  60  29 SE2       30.02F HX  96
UMBARGER 3NNE    N/A     93  55  27 S10       30.11F
$$

TXZ033>036-039>041-045>048-250000
TEXAS TECH WEST TEXAS MESONET/SOUTH PLAINS

CITY           SKY/WX    TMP DP  RH WIND       PRES   REMARKS
AIKEN 3WSW       N/A     91  64  40 E5        30.11F
ANTON 6SSW       N/A     96  53  23 SE8       30.09F
BROWNFIELD 2S    N/A     96  47  18 SE3G14    30.08F
DENVR CTY 7WNW   N/A     96  43  16 E9        30.10F
GAIL 2ESE        N/A     99  53  20 E8        30.01F HX  97
LAMESA 2SE       N/A     98  49  18 SE5       30.06F
LEVELLAND 4S     N/A     94  48  20 E1        30.10F
LUBBOCK 3WNW     N/A     96  52  22 E9        30.08F
MORTON 1ENE      N/A     96  46  17 E9        30.11F
ODONNELL 1N      N/A     97  47  18 S5        30.06F
PLAINS 3N        N/A     95  48  20 E8        30.11F
RALLS 1SE        N/A     93  61  34 E7        30.09F
REESE CENTER     N/A     96  49  20 SE10      30.09F
SEAGRAVES 1SW    N/A     97  42  14 E8        30.08F
SEMINOLE 2NNE    N/A     97  42  15 E9        30.08S
SLATON 2NE       N/A     94  51  22 NE3       30.07F
SNYDER 3E        N/A    100  54  21 E10       30.02F HX  97
SUNDOWN 8SW      N/A     96  50  21 SE6G16    30.11S
TAHOKA 3NNE      N/A     97  50  20 E6        30.06F
WOLFFORTH 6SSW   N/A     97  50  20 E8        30.09S
$$

TXZ031-032-036>038-042>044-250000-
TEXAS TECH WEST TEXAS MESONET/ROLLING PLAINS

CITY           SKY/WX    TMP DP  RH WIND       PRES   REMARKS
ASPERMONT 3NE    N/A     98  63  31 E6        29.99F HX 100
FLUVANNA 3WNW    N/A     97  51  21 E6        30.04F
GRAHAM 5SSW      N/A     97  51  21 E9        30.04F
GUTHRIE 10WSW    N/A     97  64  33 SE9       30.00F HX  98
HASKELL 1NW      N/A     95  61  32 E5        29.98F HX  95
JAYTON 1SSE      N/A     98  58  26 E10       30.00F HX  97
KNOX CITY 3NW    N/A     99  58  25 E5        29.97F HX  98
LK A HENRY 1NW   N/A     98  56  25 NE7       30.00F HX  96
NORTHFIELD 1S    N/A     98  63  31 SE9       30.00F HX  99
ODELL 4ENE       N/A     96  66  37 E7        29.98F HX  99
PADUCAH 10SW     N/A     96  62  32 SE6       30.00F HX  97
POST 1NE         N/A     97  51  21 NE7       30.03F
RRING SPRGS 3N   N/A     94  62  33 SE6       30.05F HX  95
SEYMOUR 3NW      N/A     98  61  28 SE8       29.97F HX  98
SPUR 1W          N/A     96  55  25 E7        30.02F
WEINERT 2NNE     N/A     97  66  35 E10       29.98F HX 101
WHITE RVR 6NE    N/A     96  58  28 E12       30.04F HX  95
$$

TXZ052-054-060>062-072-078-127-140-154-169-250000-
TEXAS TECH WEST TEXAS MESONET/PERMIAN BASIN/
CONCHO VALLEY/BIG COUNTRY/EDWARDS PLATEAU

CITY           SKY/WX    TMP DP  RH WIND       PRES   REMARKS
COYANOSA 2N      N/A    101  50  18 NE6       30.00F HX  98
JUNCTION 1SSW    N/A     96  63  33 NE6       29.98F HX  97
MERTZON 3NNE     N/A     95  63  34 NE7       30.03F HX  96
SAN ANGELO 7NW   N/A     96  61  32 E13       30.01F HX  96
STRLNG CT 4WSW   N/A     98  58  26 E14       30.02F HX  97
ST LAWRNCE 5SW   N/A     96  53  23 E13       30.03F
SWEETWATR 11SW   N/A     97  59  28 E10       30.04F HX  97
WALL 1E          N/A     94  62  34 E10       30.01F HX  95
$$

TXZ055-058-074-075-080-082-250000-
TEXAS TECH WEST TEXAS MESONET/FAR WEST/SOUTHWEST MOUNTAINS/TRANS PECOS

CITY           SKY/WX    TMP DP  RH WIND       PRES   REMARKS
PRSMN GAP BBNP   N/A     97  52  22 NE16      30.00F
GUADLPE MTN NP   N/A     84  41  21 E6        30.26F
$$


USA.gov is the U.S. government's official web portal to all federal, state and local government web resources and services.